STARLINK-35649, 66125

Orbit data source: Space-Track

STARLINK-35649, 66125 is a payload satellite owned by SpaceX/Seattle (US) in LEO that was launched on Wed, 22 Oct 2025 UTC via an FALCON 9 launch vehicle from the Air Force Western Test Range (AFWTR). Payload-class satellites include a variety of spacecraft equipped with specific instruments for various scientific and technological missions. These include communications satellites like Starlink; space stations such as the ISS; scientific satellites like the Hubble; Earth observation satellites from companies like Planet Labs, Umbra, and HawkEye 360; GPS; miniature CubeSats for education and research; and military/defense satellites.

Loading next visibility...
Identifier
66125, 2025-237M
Orbit
LEO
Country
Flag of USUS
Related business
Manufacturer
SpaceX/Seattle
Mission
Operational spacecraft
Bus & Motor
STARLINK V2MO, Unknown motor
Mass
575 kg wet, ~530 kg dry
Launch date (UTC)
2025-10-22 (2 weeks ago)
Launch vehicle
FALCON 9
Launch site
Air Force Western Test Range (AFWTR)
Object type
Payload
Rocket body
Debris
Shape & HBR
Unknown shape, 17.7 m
Radar Cross Section
RCS unknown

Expand to show TLE details & history
Last TLE update: 16 hours ago

TLE from 16 hours ago
0 STARLINK-35649
1 66125U 25237M   25311.25001157 -.01939891  00000-0 -15316-1 0  9991
2 66125  53.1596 255.9383 0001214  88.4696  55.6972 15.74135053  3770
Epoch: 2025-11-07T06:00Z
TLE epoch observation values (Epoch: 2025-11-07T06:00:00.999Z)
Latitude
28.01545°
Longitude
-84.11414°
Altitude
348.029 km
Speed
7.704 km/s
True Right ascension
03h 30m 20s
True Declination
27° 51' 52"
Sunlit
Object was in full shadow at epoch
Visualization orbit readout
Latitude
Unknown
Longitude
Unknown
Altitude
Unknown
Speed
Unknown
Apparent Right ascension
Unknown
Apparent Declination
Unknown
Sunlit
N/A
Visualization observer readout
Local Sidereal Time
17:57:31
Azimuth
Unknown
Elevation
Unknown
Doppler factor
Unknown
Orbital elements
Apogee altitude
348.171 km
Perigee altitude
346.538 km
Semi-major axis
6,725.492 km
Eccentricity
0.00012
Inclination
53.1596°
RAAN
255.9383°
Arg. of periapsis
88.4696°
True anomaly
55.70869°
Mean anomaly
55.6972°
Eccentric anomaly
55.70295°
Mean motion
3.93511 °/min
Orbital period
91.48 mins
BSTAR
-0.015316
Loading maneuver chart data...
Computing Atmospheric mass density...
Loading historical data...
Loading historical data...
Loading historical data...
Loading historical data...
Loading historical data...
Loading historical data...
Loading historical data...

Documentation

Showing up to 5 results
|